{"data":{"norad_id":65505,"intl_designator":"2025-198P","name":"STARLINK-35072","alt_names":[],"object_type":"PAYLOAD","status":"ACTIVE","operator":null,"country":"US","launch_date":"2025-09-05","launch_site_code":"AFETR","launch_vehicle":null,"mission":null,"orbit_class":"UNKNOWN","rcs_meters":null,"size_class":null,"mass_kg":null,"dimensions":null,"purposes":["comms"],"wikipedia_slug":null,"has_3d_model":false,"image_url":null,"decayed_at":null,"tle_current":{"epoch":"2026-05-24T20:16:18.452064Z","epoch_age_seconds":88496,"freshness":"FRESH","line1":"1 65505U 25198P   26144.84465801  .00055071  00000+0  16278-2 0  9992","line2":"2 65505  53.1588 276.2776 0000773  93.5107 266.5984 15.34425842 40295","mean_motion":15.34425842,"eccentricity":7.73e-5,"inclination_deg":53.1588,"raan_deg":276.2776,"arg_perigee_deg":93.5107,"mean_anomaly_deg":266.5984,"bstar":0.0016278,"rev_number":4029,"period_min":93.846177546324,"perigee_km":462.09764240172,"apogee_km":463.15522442852,"semimajor_km":6840.7634334151,"source":"CELESTRAK","updated_at":"2026-05-25T13:38:20.842388Z"}}}